WetterOnline ( http://www.wetteronline.de )

Wetter aktuell Mainz

Aktuelles Wetter: Kleiner Feldberg (802m)

6-stündlich | Neueste Meldungen
Ortszeit Temperatur Wetter
So, 22.07. 8:00 14.3° C leicht bewölkt
So, 22.07. 2:00 15.0° C bewölkt
Sa, 21.07. 20:00 16.7° C bewölkt
Sa, 21.07. 14:00 16.9° C leichter Regen
Sa, 21.07. 8:00 15.1° C wolkig
Sa, 21.07. 2:00 20.6° C bewölkt
Fr, 20.07. 20:00 22.2° C wolkig
Fr, 20.07. 14:00 23.8° C wolkig
Ortszeit Temperatur Wetter
So, 22.07. 12:30 20.7° C wolkig
So, 22.07. 12:10 20.0° C bedeckt
So, 22.07. 12:00 18.8° C bewölkt
So, 22.07. 11:50 18.8° C bewölkt
So, 22.07. 11:40 18.3° C bewölkt
So, 22.07. 11:30 17.5° C bewölkt
So, 22.07. 11:00 17.0° C bedeckt
So, 22.07. 10:30 18.0° C wolkig
So, 22.07. 10:00 16.2° C bedeckt
So, 22.07. 9:30 15.0° C bedeckt
Ortszeit Relative Feuchte Sichtweite
So, 22.07. 8:00 95% 4.5 km
So, 22.07. 2:00 89% 18 km
Sa, 21.07. 20:00 77% 40 km
Sa, 21.07. 14:00 79% 40 km
Sa, 21.07. 8:00 79% 40 km
Sa, 21.07. 2:00 37% 70 km
Fr, 20.07. 20:00 36% 70 km
Fr, 20.07. 14:00 33% 30 km
Ortszeit Relative Feuchte Sichtweite
So, 22.07. 12:30 64% 35 km
So, 22.07. 12:10 62% -
So, 22.07. 12:00 71% 35 km
So, 22.07. 11:50 71% -
So, 22.07. 11:40 75% -
So, 22.07. 11:30 76% 30 km
So, 22.07. 11:00 78% 22 km
So, 22.07. 10:30 82% 14 km
So, 22.07. 10:00 86% 10 km
So, 22.07. 9:30 94% 4.9 km
Ortszeit Niederschlagsmenge Niederschlagsart
So, 22.07. 8:00 0.0 l/m2 in 12 Std. -
So, 22.07. 2:00 0.0 l/m2 in 6 Std. -
Sa, 21.07. 20:00 0.2 l/m2 in 12 Std. Regen
Sa, 21.07. 14:00 0.2 l/m2 in 6 Std. Regen
Sa, 21.07. 8:00 0.0 l/m2 in 12 Std. -
Sa, 21.07. 2:00 0.0 l/m2 in 6 Std. -
Fr, 20.07. 20:00 0.0 l/m2 in 12 Std. -
Fr, 20.07. 14:00 0.0 l/m2 in 6 Std. -
Ortszeit Niederschlagsmenge Niederschlagsart
So, 22.07. 12:30 0.0 l/m2 in 1 Std. -
So, 22.07. 12:10 keine Meldung -
So, 22.07. 12:00 0.0 l/m2 in 1 Std. -
So, 22.07. 11:50 keine Meldung -
So, 22.07. 11:40 keine Meldung -
So, 22.07. 11:30 0.0 l/m2 in 1 Std. -
So, 22.07. 11:00 0.0 l/m2 in 1 Std. -
So, 22.07. 10:30 0.0 l/m2 in 1 Std. -
So, 22.07. 10:00 0.0 l/m2 in 1 Std. -
So, 22.07. 9:30 0.0 l/m2 in 1 Std. -
Ortszeit Stärke Spitze Richtung
km/h Bft. km/h Grad Sektor
So, 22.07. 8:00 9 2 20 350° N
So, 22.07. 2:00 7 2 18 320° NW
Sa, 21.07. 20:00 9 2 15 220° SW
Sa, 21.07. 14:00 7 2 22 170° S
Sa, 21.07. 8:00 14 3 25 310° NW
Sa, 21.07. 2:00 6 1 15 80° O
Fr, 20.07. 20:00 7 2 22 70° O
Fr, 20.07. 14:00 9 2 24 110° O
Ortszeit Stärke Spitze Richtung
km/h Bft. km/h Grad Sektor
So, 22.07. 12:30 7 2 18 360° N
So, 22.07. 12:10 9 2 - 350° N
So, 22.07. 12:00 9 2 15 340° N
So, 22.07. 11:50 9 2 - 340° N
So, 22.07. 11:40 9 2 - 330° NW
So, 22.07. 11:30 7 2 11 350° N
So, 22.07. 11:00 7 2 14 10° N
So, 22.07. 10:30 7 2 14 340° N
So, 22.07. 10:00 6 1 17 360° N
So, 22.07. 9:30 7 2 18 10° N
Ortszeit Untergrenze Bedeckung Gattung
total tief tief mittel hoch
So, 22.07. 8:00 1800 m 2/8 2/8 - - -
So, 22.07. 2:00 1800 m 7/8 7/8 - - -
Sa, 21.07. 20:00 2400 m 8/8 7/8 - - -
Sa, 21.07. 14:00 1800 m 8/8 8/8 - - -
Sa, 21.07. 8:00 1800 m 8/8 3/8 - - -
Sa, 21.07. 2:00 1800 m 8/8 5/8 - - -
Fr, 20.07. 20:00 2100 m 7/8 3/8 - - -
Fr, 20.07. 14:00 1800 m 7/8 7/8 - - -
Ortszeit Bedeckungsgrad in Achtel und Wolkenuntergrenze
So, 22.07. 12:30 6(630m) 6(1800m)
So, 22.07. 12:10 9 9 9
So, 22.07. 12:00 1(360m) 6(570m) 7(690m)
So, 22.07. 11:50 1(360m) 6(570m) 7(690m)
So, 22.07. 11:40 4(390m) 7(630m)
So, 22.07. 11:30 5(360m) 7(540m) 7(900m)
So, 22.07. 11:00 7(990m) 8(1320m) 8(1320m)
So, 22.07. 10:30 1(120m) 6(1080m) 6(1800m)
So, 22.07. 10:00 1(30m) 8(1020m)
So, 22.07. 9:30 7(30m) 8(1080m) 8(3300m)
Ortszeit Stationsdruck (hPa) Tendenz (hPa in 3 Std.)
So, 22.07. 8:00 920 + 0,5
So, 22.07. 2:00 920 + 0,3
Sa, 21.07. 20:00 919 - 0,3
Sa, 21.07. 14:00 920 + 1,1
Sa, 21.07. 8:00 918 + 0,4
Sa, 21.07. 2:00 918 - 0,6
Fr, 20.07. 20:00 919 - 0,9
Fr, 20.07. 14:00 921 - 0,6
Ortszeit Stationsdruck (hPa) Tendenz (hPa in 3 Std.)
So, 22.07. 12:30 921 + 0,7
So, 22.07. 12:10 921 keine Meldung
So, 22.07. 12:00 921 + 0,7
So, 22.07. 11:50 921 keine Meldung
So, 22.07. 11:40 921 keine Meldung
So, 22.07. 11:30 921 + 0,7
So, 22.07. 11:00 921 + 0,9
So, 22.07. 10:30 921 + 1,0
So, 22.07. 10:00 921 + 1,1
So, 22.07. 9:30 921 + 0,9
Ortszeit Schneehöhe (cm)
So, 22.07. 8:00 -
So, 22.07. 2:00 -
Sa, 21.07. 20:00 -
Sa, 21.07. 14:00 -
Sa, 21.07. 8:00 -
Sa, 21.07. 2:00 -
Fr, 20.07. 20:00 -
Fr, 20.07. 14:00 -
Ortszeit Schneehöhe (cm)
So, 22.07. 12:30 -
So, 22.07. 12:10 -
So, 22.07. 12:00 -
So, 22.07. 11:50 -
So, 22.07. 11:40 -
So, 22.07. 11:30 -
So, 22.07. 11:00 -
So, 22.07. 10:30 -
So, 22.07. 10:00 -
So, 22.07. 9:30 -
Link zu dieser Seite / Seite empfehlen

Das Wetter in ...